Weather in Divnoye

Russia / Kaliningrad Oblast     54°45′21″N   20°00′47″E
temp.,
°C
wind,
m/s
gust,
m/s
humid.,
%
clouds,
%
prec.,
mm/h
press.,
hPa
HPBL,
m
3 august, tue
tue323:00+17w10137992 1.3 1008842
02:00+16w9128126 3.1 1008685
05:00+16w8118333 1.6 1009636
08:00+17wnw79776 3.3 1010933
11:00+19wnw68652 0.6 10121290
14:00+19nw45505 0.6 10131021
17:00+19n334898 0.0 1013771
20:00+17nne335699 0.0 1013218
4 august, wed
wed423:00+14ene226529 0.0 1014120
02:00+15ese3363100 0.0 1014191
05:00+14se3474100 0.0 1014131
08:00+16se336862 0.0 1015271
11:00+19sw22585 0.0 1015678
14:00+21wnw33525 0.0 1014871
17:00+20nnw42535 0.0 1014692
20:00+17ne33682 0.0 1014157
5 august, thu
thu523:00+15ese228010 0.0 1014110
02:00+14e118423 0.0 101487
05:00+14n128213 0.0 101377
08:00+19ne34645 0.0 1013602
11:00+22nne3452100 0.0 10121363
14:00+23nne65515 0.0 10111151
17:00+22nne6754100 0.0 1010817
20:00+19ne6969100 0.0 1010456
6 august, fri
fri623:00+16ene5108126 0.0 1009277
02:00+14ene5991100 0.0 1009297
05:00+14ne51091100 0.0 1008385
08:00+16ene71075100 0.0 1007801
11:00+19ne786187 0.0 10071089
14:00+20ne5557100 0.0 10061385
17:00+20ene3357100 0.1 10061222
20:00+18ese2272100 0.3 1006220
7 august, sat
sat723:00+16ese228233 0.1 1006146
02:00+15se228759 0.1 100696
05:00+16wnw22835 0.1 1006202
08:00+19w346812 0.3 1006773
11:00+20wsw55652 0.1 10071011
14:00+21w45560 0.1 1007839
17:00+22wnw335549 0.0 1007490
20:00+18nne116897 0.0 100846